Regional Weather Roundup
Issued by NWS

Home | Current Version | Previous Version | Text Only | Print | Product List | Glossary On
Versions: 1 2 3 4 5 6 7 8 9 10 11 12 13 14 15 16 17 18 19 20 21 22 23 24 25 26 27 28 29 30 31 32 33 34 35 36 37 38 39 40 41 42 43 44 45 46 47 48 49 50
000
ASUS44 KFWD 272201
RWRTX
NORTH TEXAS HOURLY WEATHER ROUNDUP
NATIONAL WEATHER SERVICE FORT WORTH TX
500 PM CDT SUN MAY 27 2018

NOTE: "FAIR" INDICATES FEW OR NO CLOUDS BELOW 12,000 FEET WITH NO
SIGNIFICANT WEATHER AND/OR OBSTRUCTIONS TO VISIBILITY.

TXZ118-119-272300-
DALLAS/FORT WORTH METROPLEX

CITY           SKY/WX    TMP DP  RH WIND       PRES   REMARKS
DFW AIRPORT    PTSUNNY   96  66  37 VRB5      29.77F HX  99
DALLAS LOVE    FAIR      96  67  38 E13G22    29.78F HX 100
FTW MEACHAM    FAIR      99  70  38 SE10G17   29.78S HX 106
DAL-EXECUTIVE  FAIR      96  67  38 SE12      29.78F HX 100
FTW-ALLIANCE   FAIR      96  68  39 SE8       29.78F HX 101
FTW-NAS-JRB    FAIR      96  66  37 SE9       29.78F HX  99
FTW-SPINKS     MOSUNNY   95  68  41 SE6       29.81F HX  99
ARLINGTON      PTSUNNY   94  68  42 E8G17     29.78F HX  98
GRAND PRAIRIE  SUNNY     95  63  34 E6        29.80F HX  96
MESQUITE       MOSUNNY   95  61  31 NE7       29.79F HX  95
LANCASTER      FAIR      94  68  42 E5        29.79F HX  99
$$

TXZ091>094-102>105-117-120-121-131>134-272300-
NORTH CENTRAL TEXAS

CITY           SKY/WX    TMP DP  RH WIND       PRES   REMARKS
SHRMAN/DENISON FAIR      92  68  44 E12       29.83F HX  97
GAINESVILLE    PTSUNNY   90  68  48 E9        29.82F HX  93
BOWIE          FAIR      93  70  47 SE5       29.81F HX  99
BRIDGEPORT     FAIR      96  64  35 SE8       29.80F HX  97
DECATUR        FAIR      95  69  41 SE9       29.81S HX 100
DENTON         FAIR      95  66  38 E8        29.78F HX  98
MCKINNEY         N/A     93  68  43 E9        29.80F HX  97
BONHAM         FAIR      90  69  50 E13       29.83S HX  94
ROCKWALL       PTSUNNY   94  70  46 SE8       29.80F HX  99
TERRELL        FAIR      95  66  38 E10       29.79F HX  98
WAXAHACHIE     FAIR      94  68  42 CALM      29.80F HX  98
CLEBURNE       FAIR      93  70  46 SE8       29.81F HX  99
GRANBURY       FAIR      97  65  34 E13       29.80S HX  99
$$

TXZ083>090-098>101-113>116-127>130-139>142-154-155-272300-
WESTERN NORTH TEXAS

CITY           SKY/WX    TMP DP  RH WIND       PRES   REMARKS
WICHITA FALLS  FAIR      94  68  42 SE14G23   29.78F HX  98
WF-KICKAPOO    FAIR      95  68  41 E13G22    29.80F HX  99
VERNON         FAIR      99  63  30 S15       29.77F HX 101
ABILENE        FAIR      99  58  25 SE17      29.77F HX  98
ABILENE-DYESS  FAIR     101  53  19 E13       29.76F HX  99
BRECKENRIDGE   FAIR     100  57  24 S10G16    29.77F HX  98
EASTLAND       FAIR      95  65  36 S10G18    29.79F HX  97
RANGER         FAIR      95  62  34 SE12G17   29.81F HX  95
MINERAL WELLS  FAIR      95  65  37 SE13      29.77F HX  97
STEPHENVILLE   FAIR      95  61  32 SE13G20   29.83F HX  95
COMANCHE       FAIR      96  65  35 E10       29.80F HX  98
BROWNWOOD      LGT RAIN  97  61  30 SE15      29.78F HX  97
COLEMAN        FAIR     102  57  22 SE17G23   29.78F HX 101
BRADY          FAIR      97  61  30 VRB6G18   29.79F HX  97
$$

TXZ143>147-156>162-174-175-272300-
CENTRAL TEXAS

CITY           SKY/WX    TMP DP  RH WIND       PRES   REMARKS
WACO           PTSUNNY   97  66  36 SW5       29.77F HX 100
WACO-TSTC      MOSUNNY   97  64  34 SE6       29.77F HX  99
WACO-MCGREGOR  FAIR      96  68  39 SE7       29.78F HX 101
HILLSBORO      FAIR      93  68  43 CALM      29.79S HX  97
CORSICANA      FAIR      95  68  41 NE7       29.79F HX  99
MEXIA          FAIR      93  67  42 NE6       29.78F HX  97
HEARNE         FAIR      94  70  44 E7        29.77F HX 100
CAMERON        PTSUNNY   95  70  44 S5        29.77F HX 101
TEMPLE         FAIR      93  69  45 CALM      29.78F HX  98
KILLEEN        NOT AVBL
KILLEEN-SKYLRK FAIR      95  69  42 SE8       29.78F HX 100
GATESVILLE     FAIR      95  66  38 SE8       29.80F HX  98
HAMILTON       FAIR      95  62  33 S8        29.81F HX  95
LAMPASAS       FAIR      94  64  36 SE7       29.79F HX  96
$$

TXZ095>097-106>112-122>126-135>138-148>153-164>167-272300-
EAST TEXAS

CITY           SKY/WX    TMP DP  RH WIND       PRES   REMARKS
PARIS          FAIR      89  70  53 E12       29.83F HX  94
SULPHUR SPRNGS FAIR      93  63  36 E10       29.84F HX  93
MOUNT PLEASANT FAIR      90  68  48 E8        29.83F HX  94
GILMER         FAIR      89  69  50 NE8       29.82S HX  93
MINEOLA        FAIR      91  66  43 E5        29.80F HX  94
TYLER          FAIR      93  65  39 E12       29.80F HX  95
LONGVIEW       FAIR      91  70  49 NE8       29.80F HX  96
MARSHALL       PTSUNNY   87  68  52 E8        29.83F HX  91
ATHENS         PTSUNNY   91  70  49 NE9       29.78S HX  97
PALESTINE      PTSUNNY   92  70  48 N13       29.80S HX  97
JACKSONVILLE   PTSUNNY   87  73  62 E6        29.84R HX  93
HENDERSON      FAIR      91  69  47 E8        29.82S HX  95
CENTER         FAIR      85  66  52 E5        29.83F
NACOGDOCHES      N/A     80  75  84 S5        29.81F
LUFKIN         FAIR      88  70  55 SE6       29.80F HX  93
$$

SUPPLEMENTAL OBSERVATIONS (NWS FORT WORTH AREA)

CITY           SKY/WX    TMP DP  RH WIND       PRES   REMARKS
$$

SUPPLEMENTAL OBSERVATIONS (NWS NORMAN AREA)

CITY           SKY/WX    TMP DP  RH WIND       PRES   REMARKS
GOODLETT         N/A     98  59  27 SE17      29.76F HX  97
ODELL            N/A     97  63  32 SE17      29.78F HX  99
CROWELL          N/A     99  64  31 SE14      29.77F HX 101
KNOX CITY        N/A    100  61  27 SE12      29.76F HX 100
SEYMOUR          N/A     98  65  33 E14       29.77F HX 101
$$

SUPPLEMENTAL OBSERVATIONS (NWS SAN ANGELO AREA)

CITY           SKY/WX    TMP DP  RH WIND       PRES   REMARKS
WEINERT          N/A    100  61  27 SE16      29.76F HX 100
HASKELL          N/A     97  55  24 SE9       29.77F HX  95
THROCKMORTON     N/A    101  64  28 SE9       29.77F HX 104
STAMFORD         N/A    102  59  24 SE10      29.77F HX 101
CLYDE            N/A     98  64  32 S15       29.81F HX 100
$$

SUPPLEMENTAL OBSERVATIONS (NWS SHREVEPORT AREA)

CITY           SKY/WX    TMP DP  RH WIND       PRES   REMARKS
$$

SUPPLEMENTAL OBSERVATIONS ARE A COLLECTION OF AUTOMATED INSTRUMENTS
THAT ARE MAINTAINED BY A VARIETY OF FEDERAL AND STATE AGENCIES.
CERTAIN ELEMENTS...SUCH AS HUMIDITY VALUES AND SUSTAINED WIND
SPEEDS...MAY BE APPROXIMATED.




USA.gov is the U.S. government's official web portal to all federal, state and local government web resources and services.